| time (UTC) | temp F | wind direction | speed MPH | gust MPH | rain 1hr in | rain 24hr in | rain mn in | humidity % | barometer mb |
| 20260831183101 | 74 | 232 | 1.0 | 9.0 | 0.00 | 0.42 | 0.42 | 87 | 1011.5 |
| 20260831181604 | 73 | 277 | 4.0 | 9.0 | 0.00 | 0.42 | 0.42 | 92 | 1011.5 |
| 20260831180105 | 72 | 232 | 1.0 | 6.0 | 0.00 | 0.42 | 0.42 | 93 | 1011.6 |
| 20260831174623 | 71 | 285 | 1.0 | 6.0 | 0.00 | 0.42 | 0.42 | 95 | 1011.6 |
| 20260831173053 | 70 | 227 | 0.0 | 4.0 | 0.00 | 0.42 | 0.42 | 97 | 1011.4 |
| 20260831171603 | 70 | 0 | 0.0 | 5.0 | 0.00 | 0.42 | 0.42 | 98 | 1011.5 |
| 20260831170058 | 69 | 0 | 1.0 | 4.0 | 0.01 | 0.42 | 0.42 | 98 | 1011.8 |
| 20260831164605 | 69 | 276 | 1.0 | 7.0 | 0.01 | 0.42 | 0.42 | 98 | 1011.7 |
| 20260831163107 | 69 | 0 | 0.0 | 3.0 | 0.01 | 0.42 | 0.42 | 98 | 1011.6 |
| 20260831161606 | 69 | 233 | 0.0 | 5.0 | 0.01 | 0.42 | 0.42 | 98 | 1011.3 |
| 20260831160106 | 69 | 0 | 0.0 | 5.0 | 0.00 | 0.41 | 0.41 | 98 | 1011.3 |
| 20260831154624 | 68 | 200 | 2.0 | 8.0 | 0.00 | 0.41 | 0.41 | 98 | 1011.3 |
| 20260831153118 | 68 | 232 | 2.0 | 4.0 | 0.00 | 0.41 | 0.41 | 99 | 1010.9 |
| 20260831151613 | 68 | 0 | 0.0 | 5.0 | 0.00 | 0.41 | 0.41 | 99 | 1010.8 |
| 20260831150106 | 67 | 261 | 1.0 | 5.0 | 0.00 | 0.41 | 0.41 | 99 | 1010.6 |
| 20260831144605 | 67 | 167 | 0.0 | 4.0 | 0.00 | 0.41 | 0.41 | 99 | 1010.6 |
| 20260831143109 | 67 | 0 | 0.0 | 2.0 | 0.00 | 0.41 | 0.41 | 99 | 1010.3 |
| 20260831141605 | 67 | 0 | 0.0 | 3.0 | 0.00 | 0.41 | 0.41 | 99 | 1010.1 |
| 20260831140104 | 67 | 0 | 0.0 | 3.0 | 0.00 | 0.41 | 0.41 | 99 | 1010.2 |
| 20260831134614 | 66 | 0 | 0.0 | 0.0 | 0.00 | 0.41 | 0.41 | 99 | 1010.2 |
| 20260831133107 | 66 | 221 | 0.0 | 4.0 | 0.00 | 0.41 | 0.41 | 99 | 1010.1 |
| 20260831131601 | 66 | 0 | 1.0 | 4.0 | 0.00 | 0.41 | 0.41 | 99 | 1010.2 |
| 20260831130059 | 66 | 0 | 0.0 | 5.0 | 0.00 | 0.41 | 0.41 | 99 | 1009.8 |
| 20260831124608 | 65 | 182 | 0.0 | 2.0 | 0.00 | 0.41 | 0.41 | 99 | 1009.9 |
| 20260831123105 | 65 | 0 | 0.0 | 1.0 | 0.00 | 0.41 | 0.41 | 99 | 1010.0 |
| 20260831121632 | 65 | 0 | 0.0 | 3.0 | 0.00 | 0.41 | 0.41 | 99 | 1009.9 |
| 20260831120059 | 64 | 0 | 0.0 | 0.0 | 0.00 | 0.41 | 0.41 | 99 | 1009.9 |
| 20260831114605 | 64 | 0 | 0.0 | 0.0 | 0.00 | 0.41 | 0.41 | 99 | 1010.0 |
| 20260831113109 | 64 | 0 | 0.0 | 0.0 | 0.00 | 0.41 | 0.41 | 99 | 1009.9 |
| 20260831111557 | 64 | 0 | 0.0 | 4.0 | 0.02 | 0.41 | 0.41 | 98 | 1009.7 |
| 20260831110107 | 64 | 140 | 0.0 | 4.0 | 0.05 | 0.41 | 0.41 | 98 | 1009.8 |
| 20260831104605 | 64 | 194 | 2.0 | 9.0 | 0.09 | 0.41 | 0.41 | 98 | 1009.7 |
| 20260831103111 | 64 | 140 | 2.0 | 8.0 | 0.17 | 0.41 | 0.41 | 98 | 1009.8 |
| 20260831101610 | 64 | 89 | 2.0 | 6.0 | 0.17 | 0.39 | 0.39 | 98 | 1009.9 |
| 20260831100110 | 64 | 82 | 0.0 | 4.0 | 0.19 | 0.36 | 0.36 | 98 | 1010.3 |
| 20260831094608 | 64 | 0 | 1.0 | 5.0 | 0.15 | 0.32 | 0.32 | 98 | 1010.4 |
| 20260831093152 | 64 | 189 | 2.0 | 7.0 | 0.07 | 0.24 | 0.24 | 98 | 1010.1 |
| 20260831091606 | 64 | 121 | 2.0 | 7.0 | 0.04 | 0.21 | 0.21 | 98 | 1009.8 |
| 20260831090108 | 64 | 184 | 1.0 | 6.0 | 0.00 | 0.17 | 0.17 | 98 | 1010.7 |
| 20260831084652 | 64 | 104 | 2.0 | 8.0 | 0.00 | 0.17 | 0.17 | 98 | 1009.9 |
| 20260831083107 | 64 | 76 | 2.0 | 9.0 | 0.00 | 0.17 | 0.17 | 98 | 1009.5 |
| 20260831081558 | 64 | 88 | 3.0 | 7.0 | 0.00 | 0.17 | 0.17 | 98 | 1009.6 |
| 20260831080117 | 64 | 109 | 2.0 | 6.0 | 0.00 | 0.17 | 0.17 | 98 | 1009.7 |
| 20260831074553 | 64 | 127 | 2.0 | 4.0 | 0.00 | 0.17 | 0.17 | 98 | 1010.0 |
| 20260831073057 | 64 | 0 | 1.0 | 4.0 | 0.02 | 0.17 | 0.17 | 98 | 1010.2 |
| 20260831071612 | 64 | 0 | 1.0 | 5.0 | 0.03 | 0.17 | 0.17 | 98 | 1010.3 |
| 20260831070056 | 63 | 101 | 1.0 | 6.0 | 0.07 | 0.17 | 0.17 | 98 | 1010.2 |
| 20260831064603 | 63 | 134 | 3.0 | 7.0 | 0.07 | 0.17 | 0.17 | 97 | 1010.4 |
| 20260831063108 | 63 | 106 | 1.0 | 6.0 | 0.09 | 0.15 | 0.15 | 97 | 1010.6 |
| 20260831061605 | 63 | 95 | 1.0 | 3.0 | 0.14 | 0.14 | 0.14 | 97 | 1011.5 |
| 20260831060122 | 63 | 0 | 0.0 | 2.0 | 0.10 | 0.10 | 0.10 | 97 | 1011.8 |
| 20260831054604 | 63 | 145 | 1.0 | 8.0 | 0.10 | 0.10 | 0.10 | 96 | 1011.1 |
| 20260831053102 | 63 | 92 | 1.0 | 7.0 | 0.06 | 0.06 | 0.06 | 95 | 1011.9 |
| 20260831051602 | 64 | 128 | 2.0 | 7.0 | 0.00 | 0.00 | 0.00 | 94 | 1012.4 |
| 20260831050118 | 64 | 117 | 3.0 | 10.0 | 0.00 | 0.00 | 0.00 | 94 | 1012.4 |
| 20260831044610 | 64 | 84 | 4.0 | 13.0 | 0.00 | 0.00 | 0.00 | 94 | 1012.4 |
| 20260831043105 | 64 | 109 | 4.0 | 10.0 | 0.00 | 0.00 | 0.00 | 94 | 1012.8 |
| 20260831041558 | 64 | 114 | 1.0 | 10.0 | 0.00 | 0.00 | 0.00 | 93 | 1013.0 |
| 20260831040054 | 64 | 0 | 3.0 | 11.0 | 0.00 | 0.00 | 0.00 | 93 | 1013.3 |
| 20260831034601 | 64 | 99 | 3.0 | 9.0 | 0.00 | 0.00 | 0.00 | 92 | 1013.7 |
| 20260831033104 | 65 | 109 | 2.0 | 12.0 | 0.00 | 0.00 | 0.00 | 91 | 1013.4 |
| 20260831031557 | 65 | 120 | 3.0 | 8.0 | 0.00 | 0.00 | 0.00 | 91 | 1013.6 |
| 20260831030056 | 65 | 100 | 3.0 | 9.0 | 0.00 | 0.00 | 0.00 | 91 | 1013.8 |
| 20260831024559 | 65 | 0 | 3.0 | 8.0 | 0.00 | 0.00 | 0.00 | 91 | 1013.9 |
| 20260831023105 | 65 | 0 | 1.0 | 7.0 | 0.00 | 0.00 | 0.00 | 91 | 1013.9 |
| 20260831021555 | 65 | 128 | 4.0 | 12.0 | 0.00 | 0.00 | 0.00 | 91 | 1013.7 |
| 20260831020056 | 65 | 117 | 1.0 | 8.0 | 0.00 | 0.00 | 0.00 | 91 | 1013.5 |
| 20260831014552 | 64 | 107 | 2.0 | 11.0 | 0.00 | 0.00 | 0.00 | 91 | 1013.0 |
| 20260831013058 | 65 | 92 | 3.0 | 10.0 | 0.00 | 0.00 | 0.00 | 91 | 1012.5 |
| 20260831011602 | 65 | 128 | 4.0 | 10.0 | 0.00 | 0.00 | 0.00 | 90 | 1012.2 |
| 20260831010105 | 65 | 111 | 3.0 | 10.0 | 0.00 | 0.00 | 0.00 | 89 | 1012.8 |
| 20260831004554 | 65 | 0 | 2.0 | 11.0 | 0.00 | 0.00 | 0.00 | 89 | 1013.0 |
| 20260831003101 | 66 | 119 | 2.0 | 11.0 | 0.00 | 0.00 | 0.00 | 89 | 1013.0 |
| 20260831001608 | 66 | 90 | 4.0 | 13.0 | 0.00 | 0.00 | 0.00 | 88 | 1013.6 |
| 20260831000056 | 66 | 165 | 5.0 | 12.0 | 0.00 | 0.00 | 0.00 | 88 | 1013.9 |
| 20260830234606 | 66 | 62 | 3.0 | 11.0 | 0.00 | 0.00 | 0.00 | 87 | 1014.1 |
| 20260830233106 | 66 | 78 | 3.0 | 10.0 | 0.00 | 0.00 | 0.00 | 86 | 1014.0 |
| 20260830231556 | 67 | 111 | 5.0 | 12.0 | 0.00 | 0.00 | 0.00 | 85 | 1014.3 |
| 20260830230128 | 67 | 74 | 4.0 | 10.0 | 0.00 | 0.00 | 0.00 | 85 | 1014.2 |
| 20260830224606 | 67 | 101 | 5.0 | 13.0 | 0.00 | 0.00 | 0.00 | 84 | 1014.1 |
| 20260830223055 | 68 | 113 | 5.0 | 12.0 | 0.00 | 0.00 | 0.00 | 83 | 1014.2 |
| 20260830221553 | 68 | 123 | 4.0 | 9.0 | 0.00 | 0.00 | 0.00 | 81 | 1014.1 |
| 20260830220107 | 69 | 142 | 4.0 | 10.0 | 0.00 | 0.00 | 0.00 | 81 | 1014.5 |
| 20260830214556 | 69 | 123 | 6.0 | 13.0 | 0.00 | 0.00 | 0.00 | 80 | 1014.4 |
| 20260830213100 | 70 | 62 | 4.0 | 11.0 | 0.00 | 0.00 | 0.00 | 79 | 1014.5 |
| 20260830211605 | 70 | 200 | 4.0 | 14.0 | 0.00 | 0.00 | 0.00 | 80 | 1014.7 |
| 20260830210109 | 70 | 198 | 2.0 | 13.0 | 0.00 | 0.00 | 0.00 | 81 | 1014.7 |
| 20260830204557 | 69 | 94 | 6.0 | 12.0 | 0.00 | 0.00 | 0.00 | 80 | 1014.7 |
| 20260830203100 | 70 | 152 | 6.0 | 15.0 | 0.00 | 0.00 | 0.00 | 80 | 1014.7 |
| 20260830201556 | 70 | 162 | 4.0 | 13.0 | 0.00 | 0.00 | 0.00 | 80 | 1014.8 |
| 20260830200106 | 69 | 89 | 4.0 | 13.0 | 0.00 | 0.00 | 0.00 | 81 | 1014.6 |
| 20260830194612 | 70 | 111 | 3.0 | 10.0 | 0.00 | 0.00 | 0.00 | 82 | 1014.9 |
| 20260830193100 | 69 | 186 | 5.0 | 14.0 | 0.00 | 0.00 | 0.00 | 81 | 1014.5 |
| 20260830191601 | 69 | 190 | 6.0 | 13.0 | 0.00 | 0.00 | 0.00 | 81 | 1014.7 |
| 20260830190057 | 70 | 169 | 5.0 | 12.0 | 0.00 | 0.00 | 0.00 | 81 | 1014.6 |
| 20260830184559 | 69 | 72 | 4.0 | 11.0 | 0.00 | 0.00 | 0.00 | 82 | 1014.7 |